Terminal Aerodrome Forecast
Issued by NWS

Home | Current Version | Previous Version | Text Only | Print | Product List | Glossary On
Versions: 1 2 3 4 5 6 7 8 9 10 11 12 13 14 15 16 17 18 19 20 21 22 23 24 25 26 27 28 29 30 31 32 33
000
FTUS43 KABR 210900 AAA
TAFPIR
TAF AMD
KPIR 210901Z 2109/2206 11004KT P6SM BKN100 OVC120
      TEMPO 2109/2113 3SM BR
     FM211600 16008KT P6SM OVC100=

USA.gov is the U.S. government's official web portal to all federal, state and local government web resources and services.